Dundee, United Kingdom

5:41 AM GMT on February 21, 2018 (GMT +0000)
Dundee

Weather History for EGPN - May, 2013

Change the Weather History Date:

Saturday, May 4, 2013

  Actual Average Record
Temperature  
Mean Temperature 46 °F -  
Max Temperature 50 °F 57 °F 62 °F (2014)
Min Temperature 42 °F 47 °F 37 °F (2011)
Degree Days  
Heating Degree Days 19    
Moisture  
Dew Point 39 °F    
Average Humidity 73    
Maximum Humidity 87    
Minimum Humidity 66    
Precipitation  
Precipitation 0.00 in - - ()
Sea Level Pressure  
Sea Level Pressure 29.74 in    
Wind  
Wind Speed 17 mph ()    
Max Wind Speed 29 mph    
Max Gust Speed -    
Visibility 6.2 miles    
Events      
Averages and records for this station are not official NWS values.
T = Trace of Precipitation, MM = Missing Value Source: Averaged Metar Reports

Daily Weather History Graph

Daily Weather History Graph

Search for Another Location

Airport or City:

Trip Planner

Search our weather history database for the weather conditions in past years. The results will help you decide how hot, cold, wet, or windy it might be!

Date:

Astronomy

May. 04, 2013 Rise Set
Actual Time 5:19 AM BST 8:59 PM BST
Civil Twilight 4:32 AM BST 9:46 PM BST
Nautical Twilight 3:27 AM BST 10:53 PM BST
Astronomical Twilight 1:41 AM BST 12:36 AM BST
Moon 3:13 AM BST (5/4) 2:43 PM BST (5/4)
Length of Visible Light 17h 13m
Length of Day
15h 40m
Waning Crescent, 29% of the Moon is Illuminated
May 4
Waning Crescent
May 10
New
May 18
First Quarter
May 25
Full
May 31
Last Quarter

Hourly Weather History & Observations

Time (BST) Temp. Windchill Dew Point Humidity Pressure Visibility Wind Dir Wind Speed Gust Speed Precip Events Conditions
7:20 AM 42.8 °F 35.4 °F 37.4 °F 81% 29.74 in 6.2 mi WSW 15.0 mph - N/A   Partly Cloudy
7:50 AM 42.8 °F 35.8 °F 37.4 °F 81% 29.74 in 6.2 mi WSW 13.8 mph - N/A   Partly Cloudy
8:20 AM 42.8 °F 35.4 °F 35.6 °F 76% 29.74 in 6.2 mi WSW 15.0 mph - N/A   Partly Cloudy
8:50 AM 44.6 °F 37.4 °F 37.4 °F 76% 29.74 in 6.2 mi WSW 16.1 mph - N/A   Partly Cloudy
9:20 AM 44.6 °F 37.2 °F 37.4 °F 76% 29.74 in 6.2 mi WSW 17.3 mph - N/A   Partly Cloudy
9:50 AM 46.4 °F 39.2 °F 35.6 °F 66% 29.74 in 6.2 mi WSW 18.4 mph - N/A   Partly Cloudy
10:20 AM 46.4 °F 38.5 °F 37.4 °F 71% 29.74 in 6.2 mi WSW 21.9 mph - N/A   Partly Cloudy
10:50 AM 48.2 °F - 37.4 °F 66% 29.74 in 6.2 mi WSW 20.7 mph - N/A   Partly Cloudy
11:20 AM 48.2 °F - 37.4 °F 66% 29.74 in 6.2 mi WSW 21.9 mph - N/A   Partly Cloudy
11:50 AM 48.2 °F - 39.2 °F 71% 29.74 in 6.2 mi WSW 19.6 mph - N/A   Partly Cloudy
12:20 PM 50.0 °F - 39.2 °F 66% 29.74 in 6.2 mi WSW 20.7 mph - N/A   Scattered Clouds
12:50 PM 50.0 °F - 39.2 °F 66% 29.74 in 6.2 mi WSW 20.7 mph - N/A   Scattered Clouds
1:20 PM 50.0 °F - 39.2 °F 66% 29.74 in 6.2 mi WSW 23.0 mph - N/A   Mostly Cloudy
1:50 PM 50.0 °F - 41.0 °F 71% 29.74 in 6.2 mi WSW 25.3 mph - N/A   Mostly Cloudy
2:20 PM 50.0 °F - 41.0 °F 71% 29.74 in 6.2 mi WSW 26.5 mph - N/A   Mostly Cloudy
2:50 PM 50.0 °F - 42.8 °F 76% 29.74 in 6.2 mi SW 27.6 mph - N/A   Mostly Cloudy
3:20 PM 50.0 °F - 42.8 °F 76% 29.74 in 6.2 mi SW 26.5 mph - N/A   Mostly Cloudy
3:50 PM 50.0 °F - 42.8 °F 76% 29.77 in 6.2 mi WSW 28.8 mph - N/A   Mostly Cloudy
4:20 PM 48.2 °F - 44.6 °F 87% 29.77 in 6.2 mi SW 28.8 mph - N/A   Mostly Cloudy